Find Starlink 11454

NORAD ID: 62059 Int'l Des: 2024-217 Owner: SPXS Country: US Constellation: starlink operational
LEOCIRCULAR

Live Position

Loading 3D Globe...

About Starlink 11454

Description loading...

Upcoming Passes

Passes for default location (London). Set your location on the main map for personalized predictions.

Altitude History

Loading altitude history...

Two-Line Element Set

1 62059U 24217C 26123.52119179 .00203695 00000-0 16399-2 0 9992
2 62059 53.1564 161.0893 0001174 52.1477 307.9647 15.69788632 83782
Epoch: May 3, 2026 • Age: 6 hours

Current Status

Altitude 369.2 km
Velocity 7.69 km/s
Sub-Earth Point -30.07°S, 126.42°W
Launch Date Nov 24, 2024
Age 1.4 years
Type internet

Technical Details

Classification Payload
Mass 960.00 kg
Dry Mass 910.00 kg
Total Mass 960.00 kg
Length 0.30 m
Diameter 4.10 m
Span 29.00 m
Shape Box + pan
Manufacturer SPXS
Bus Type Starlink V2MD
Phase Status In Orbit
Owner/State SPXS/US

Most Searched